Regional Weather Roundup
Issued by NWS

Home | Current Version | Previous Version | Graphics & Text | Print | Product List | Glossary On
Versions: 1 2 3 4 5 6 7 8 9 10 11 12 13 14 15 16 17 18 19 20 21 22 23 24 25 26 27 28 29 30 31 32 33 34 35 36 37 38 39 40 41 42 43 44 45 46 47 48 49 50
000
ASUS45 KSLC 080510
RWRUT

UTAH REGIONAL WEATHER ROUNDUP
NATIONAL WEATHER SERVICE SALT LAKE CITY UT
1000 PM MST SUN FEB 07 2016

UTZ001>011-023>025-080600-

NORTHERN UTAH

CITY           SKY/WX    TMP DP  RH WIND       PRES   REMARKS
BRIGHAM CITY     N/A     15  12  88 CALM      30.66F VSB 3/4
HILL AFB       CLEAR     28  18  67 E9        30.64S WCI  19
LOGAN          FOG       18  17  96 CALM      30.65F VSB 1/2
OGDEN          CLEAR     25  22  88 S5        30.64S WCI  19
PROVO AIRPORT  PTCLDY    19  16  86 CALM      30.66S
SALT LAKE CITY PTCLDY    29  25  85 CALM      30.66S FOG
VERNAL         CLOUDY    15   9  76 NW5       30.57R WCI   8
WENDOVER       PTCLDY    28  23  80 W3        30.66R
HEBER CITY     PTCLDY    12   9  85 CALM      30.62R
WEST JORDAN    CLEAR     27  23  86 CALM      30.66R

$$

UTZ012>022-026-027-080600-

SOUTHERN/CENTRAL UTAH

CITY           SKY/WX    TMP DP  RH WIND       PRES   REMARKS
BLANDING       CLEAR     27  16  62 N9        30.52S WCI  18
BRYCE CANYON   PTCLDY    15   6  67 N14       30.56R WCI   0
CEDAR CITY     PTCLDY    18  13  80 SE3       30.56R
DELTA          MOCLDY    13  11  94 CALM      30.65R
HANKSVILLE     MOCLDY    21  19  93 E3        30.58S
MILFORD        MOCLDY    12  32 100 N9        30.61R WCI   0
MOAB/CYNLANDS  MOCLDY    14  12  92 E3        30.54S
PRICE          CLEAR     22  13  68 CALM      30.50S
ST GEORGE      PTCLDY    46  19  34 NW6       30.49R
KANAB          CLEAR     36  25  64 CALM      30.52R

$$

REGIONAL REPORTS     COLORADO/ARIZONA

CITY           SKY/WX    TMP DP  RH WIND       PRES   REMARKS
CRAIG, CO      CLOUDY    -1  -5  82 CALM      30.53S
GRAND JUNCTION CLOUDY    17  14  88 E5        30.54S WCI  10
RIFLE          CLOUDY    15   9  76 SE3       30.54S
MONTROSE       CLOUDY    16  11  80 SE8       30.55S WCI   5
CORTEZ         CLOUDY    28  18  66 E8        30.41S WCI  20
PAGE, AZ       CLEAR     36  23  59 W5        30.50R WCI  32
GRAND CANYON   CLEAR     29  17  61 CALM      30.48R
KINGMAN        CLEAR     50  22  33 N10       30.34F
FLAGSTAFF      CLEAR     37  16  42 E13       30.44R WCI  29

$$

REGIONAL REPORTS    NEVADA/IDAHO/WYOMING

CITY           SKY/WX    TMP DP  RH WIND       PRES   REMARKS
LAS VEGAS, NV  CLEAR     58  24  27 NE9       30.36R
ELY            PTCLDY    14   8  77 S12       30.62R WCI   0
ELKO           PTCLDY    18  12  77 NE3       30.67R
POCATELLO, ID  CLOUDY    23  22  96 NE6       30.67R FOG     WCI  16
BURLEY         CLEAR     26  24  92 N5        30.63R WCI  20
EVANSTON, WY   CLOUDY    23  13  65 SW8       30.59R WCI  14
ROCK SPRINGS   CLOUDY    27  18  69 W28       30.47F WCI  11

$$



USA.gov is the U.S. government's official web portal to all federal, state and local government web resources and services.